Norfolk, NE

12:44 PM CDT on May 26, 2017 (GMT -0500)
Stefan Memorial

Weather History for KOFK - February, 2014

Change the Weather History Date:

Wednesday, February 26, 2014

  Actual Average Record
Temperature  
Mean Temperature 12 °F 30 °F  
Max Temperature 33 °F 41 °F 72 °F (1896)
Min Temperature -9 °F 20 °F -22 °F (1934)
Degree Days  
Heating Degree Days 53 35  
Month to date heating degree days 1154 1001  
Since 1 July heating degree days 5250 5023  
Cooling Degree Days 0 0  
Month to date cooling degree days 0 0  
Year to date cooling degree days 0 0  
Moisture  
Dew Point 2 °F    
Average Humidity 61    
Maximum Humidity 83    
Minimum Humidity 38    
Precipitation  
Precipitation 0.00 in 0.04 in 0.70 in (1899)
Month to date precipitation 0.39 0.70  
Year to date precipitation 0.53 1.29  
Snow  
Snow 0.00 in 0.20 in - ()
Month to date snowfall 6.2 5.2  
Since 1 July snowfall 10.7 22.5  
Snow Depth 2.00 in    
Sea Level Pressure  
Sea Level Pressure 30.17 in    
Wind  
Wind Speed 12 mph (West)    
Max Wind Speed 23 mph    
Max Gust Speed 29 mph    
Visibility 10 miles    
Events      
T = Trace of Precipitation, MM = Missing Value Source: NWS Daily Summary

Daily Weather History Graph

Daily Weather History Graph

Search for Another Location

Airport or City:

Trip Planner

Search our weather history database for the weather conditions in past years. The results will help you decide how hot, cold, wet, or windy it might be!

Date:

Astronomy

Feb. 26, 2014 Rise Set
Actual Time 7:09 AM CST 6:16 PM CST
Civil Twilight 6:41 AM CST 6:44 PM CST
Nautical Twilight 6:08 AM CST 7:16 PM CST
Astronomical Twilight 5:36 AM CST 7:49 PM CST
Moon 4:58 AM CST 3:30 PM CST
Length of Visible Light 12h 03m
Length of Day
11h 06m
Waning Crescent, 10% of the Moon is Illuminated
Feb 26
Waning Crescent
Mar 1
New
Mar 8
First Quarter
Mar 16
Full
Mar 23
Last Quarter

Hourly Weather History & Observations

Time (CST) Temp. Windchill Dew Point Humidity Pressure Visibility Wind Dir Wind Speed Gust Speed Precip Events Conditions
12:56 AM -2.0 °F -15.4 °F -8.0 °F 76% 30.55 in 10.0 mi West 6.9 mph - N/A   Clear
1:56 AM -4.0 °F -16.3 °F -9.0 °F 79% 30.52 in 10.0 mi West 5.8 mph - N/A   Clear
2:56 AM -5.1 °F -20.4 °F -9.9 °F 80% 30.48 in 10.0 mi WSW 8.1 mph - N/A   Clear
3:56 AM -8.0 °F -16.9 °F -11.9 °F 83% 30.44 in 10.0 mi WSW 3.5 mph - N/A   Clear
4:56 AM -8.0 °F - -14.1 °F 75% 30.41 in 10.0 mi Calm Calm - N/A   Clear
5:56 AM -6.0 °F -14.7 °F -11.9 °F 75% 30.37 in 10.0 mi WSW 3.5 mph - N/A   Clear
6:56 AM -5.1 °F -20.4 °F -11.0 °F 76% 30.34 in 10.0 mi WSW 8.1 mph - N/A   Clear
7:56 AM -5.1 °F - -9.9 °F 80% 30.32 in 10.0 mi Calm Calm - N/A   Clear
8:56 AM 7.0 °F -8.3 °F -2.0 °F 67% 30.28 in 10.0 mi WSW 11.5 mph - N/A   Clear
9:56 AM 12.0 °F -3.4 °F 1.9 °F 64% 30.22 in 10.0 mi SW 13.8 mph - N/A   Clear
10:56 AM 18.0 °F 2.2 °F 7.0 °F 62% 30.19 in 10.0 mi WSW 18.4 mph - N/A   Clear
11:56 AM 21.0 °F 6.2 °F 9.0 °F 60% 30.14 in 10.0 mi WSW 18.4 mph - N/A   Clear
12:56 PM 26.1 °F 12.3 °F 9.0 °F 49% 30.08 in 10.0 mi WSW 19.6 mph - N/A   Clear
1:56 PM 28.9 °F 16.9 °F 9.0 °F 43% 30.02 in 10.0 mi West 17.3 mph - N/A   Clear
2:56 PM 30.9 °F 18.4 °F 10.0 °F 42% 29.99 in 10.0 mi West 20.7 mph 25.3 mph N/A   Clear
3:56 PM 33.1 °F 21.5 °F 10.0 °F 38% 29.97 in 10.0 mi West 19.6 mph 26.5 mph N/A   Clear
4:56 PM 33.1 °F 21.9 °F 10.9 °F 40% 29.96 in 10.0 mi West 18.4 mph - N/A   Clear
5:56 PM 30.9 °F 21.2 °F 12.0 °F 46% 29.95 in 10.0 mi WNW 12.7 mph - N/A   Clear
6:56 PM 28.9 °F 17.7 °F 10.0 °F 45% 29.97 in 10.0 mi WNW 15.0 mph - N/A   Clear
7:56 PM 25.0 °F 15.5 °F 10.9 °F 55% 29.99 in 10.0 mi WNW 9.2 mph - N/A   Clear
8:56 PM 27.0 °F 16.1 °F 12.0 °F 53% 29.99 in 10.0 mi NW 12.7 mph - N/A   Clear
9:56 PM 23.0 °F 12.4 °F 12.0 °F 63% 30.02 in 10.0 mi NW 10.4 mph - N/A   Clear
10:56 PM 21.0 °F 6.2 °F 10.0 °F 63% 30.05 in 10.0 mi North 18.4 mph - N/A   Clear
11:56 PM 15.1 °F 0.5 °F 3.0 °F 59% 30.08 in 10.0 mi North 13.8 mph - N/A   Clear